Location: B?dimalle
(17.1788°N, 80.5377°E)
Time: 02:26:53
(UTC+00:00)

Vanguard 2 Rocket - Visible Passes

Search period start: 07 February 2026 00:00
Search period end: 17 February 2026 00:00
Orbit: 553 x 3286 km, 32.9° (Epoch: 6 February)

Date Brightness Start Highest point End Pass type
(mag) Time Alt. Az. Time Alt. Az. Time Alt. Az.
8 Feb 8.1 13:57:57 10° NW 14:01:44 17° N 14:02:25 17° NNE visible
9 Feb 8.5 12:50:51 10° NW 12:56:07 19° N 13:00:00 10° NE visible
9 Feb 9.0 15:06:08 10° NW 15:06:43 12° NW 15:06:43 12° NW visible
10 Feb 7.8 14:00:31 10° NW 14:05:15 23° N 14:05:40 23° NNE visible
11 Feb 8.4 12:53:47 10° NW 12:59:41 22° N 13:03:53 10° NE visible
11 Feb 8.8 15:08:45 10° NW 15:10:01 16° NW 15:10:01 16° NW visible
12 Feb 7.3 14:03:02 10° NW 14:08:42 33° NNE 14:09:01 33° NNE visible
13 Feb 8.2 12:56:27 10° NW 13:03:15 28° N 13:07:47 10° ENE visible
13 Feb 8.6 15:11:32 10° WNW 15:13:25 20° WNW 15:13:25 20° WNW visible
14 Feb 6.6 14:05:34 10° NW 14:12:01 52° NNE 14:12:29 50° NE visible
15 Feb 7.8 12:58:58 10° NW 13:06:43 38° NNE 13:11:35 10° E visible
15 Feb 8.6 15:14:33 10° WNW 15:16:58 23° W 15:16:58 23° W visible
16 Feb 6.4 14:08:11 10° WNW 14:15:09 86° NNE 14:16:06 59° ESE visible
